GTRVO EDAH-EDXW

Flight info

Callsign GTRVO
Flight time 1h 22m
Altitude 10500
Route DCT EDAHN DCT MASOR DCT ROSOK DCT MICOS DCT EKERN DCT OLDIP DCT EDXWE1 DCT EDXWE2 DCT
Aircraft C208/L-SDFGR/S

Departure

Time 2026-04-30 07:31
Airport Heringsdorf Airport (EDAH)

Arrival

Time 2026-04-30 08:53
Airport Westerland Sylt Airport (EDXW)
Time Latitude Longitude Altitude Speed Heading
2026-04-30 07:16 53.87898 14.13918 51 ft 0 kts 310°
2026-04-30 07:26 53.87909 14.13903 74 ft 5 kts 339°
2026-04-30 07:26 53.87922 14.13989 78 ft 14 kts 112°
2026-04-30 07:26 53.87867 14.14159 76 ft 17 kts 120°
2026-04-30 07:26 53.87810 14.14338 77 ft 18 kts 106°
2026-04-30 07:27 53.87800 14.14505 77 ft 15 kts 95°
2026-04-30 07:27 53.87787 14.14737 73 ft 24 kts 94°
2026-04-30 07:27 53.87773 14.14994 73 ft 19 kts 95°
2026-04-30 07:27 53.87761 14.15197 77 ft 14 kts 96°
2026-04-30 07:28 53.87801 14.15253 77 ft 3 kts 15°
2026-04-30 07:28 53.87804 14.15254 77 ft 0 kts 15°
2026-04-30 07:29 53.87831 14.15267 78 ft 8 kts 15°
2026-04-30 07:29 53.87869 14.15261 80 ft 0 kts 285°
2026-04-30 07:30 53.88004 14.14412 107 ft 73 kts 285°
2026-04-30 07:30 53.88128 14.13560 328 ft 73 kts 287°
2026-04-30 07:30 53.88230 14.12706 512 ft 83 kts 283°
2026-04-30 07:31 53.88420 14.11763 750 ft 86 kts 310°
2026-04-30 07:31 53.88973 14.11407 955 ft 97 kts
2026-04-30 07:31 53.89456 14.12326 1061 ft 124 kts 72°
2026-04-30 07:31 53.89901 14.13526 1080 ft 125 kts 13°
2026-04-30 07:32 53.90719 14.13350 1237 ft 118 kts 342°
2026-04-30 07:32 53.91515 14.13073 1454 ft 115 kts 346°
2026-04-30 07:32 53.92276 14.12768 1724 ft 110 kts 343°
2026-04-30 07:32 53.93018 14.12414 1932 ft 110 kts 342°
2026-04-30 07:33 53.93750 14.12019 2117 ft 112 kts 340°
2026-04-30 07:33 53.94492 14.11576 2315 ft 114 kts 341°
2026-04-30 07:33 53.95260 14.11128 2436 ft 121 kts 343°
2026-04-30 07:33 53.96099 14.10734 2497 ft 128 kts 345°
2026-04-30 07:34 53.96864 14.09999 2652 ft 129 kts 312°
2026-04-30 07:34 53.97082 14.08541 2872 ft 134 kts 272°
2026-04-30 07:34 53.96947 14.06991 3126 ft 129 kts 266°
2026-04-30 07:34 53.96777 14.05534 3483 ft 123 kts 265°
2026-04-30 07:35 53.96605 14.04160 3834 ft 117 kts 265°
2026-04-30 07:35 53.96514 14.02866 4159 ft 107 kts 270°
2026-04-30 07:35 53.96406 14.01632 4406 ft 104 kts 269°
2026-04-30 07:35 53.96292 14.00430 4652 ft 102 kts 268°
2026-04-30 07:36 53.96173 13.99258 4897 ft 99 kts 269°
2026-04-30 07:36 53.96056 13.98113 5104 ft 99 kts 269°
2026-04-30 07:36 53.95935 13.96921 5247 ft 106 kts 268°
2026-04-30 07:36 53.95803 13.95646 5396 ft 113 kts 268°
2026-04-30 07:37 53.95662 13.94296 5552 ft 119 kts 268°
2026-04-30 07:37 53.95512 13.92865 5722 ft 127 kts 267°
2026-04-30 07:37 53.95352 13.91336 5876 ft 134 kts 266°
2026-04-30 07:37 53.95171 13.89756 6032 ft 138 kts 266°
2026-04-30 07:38 53.94995 13.88134 6180 ft 142 kts 266°
2026-04-30 07:38 53.94816 13.86472 6320 ft 144 kts 266°
2026-04-30 07:38 53.94634 13.84791 6491 ft 145 kts 266°
2026-04-30 07:38 53.94450 13.83095 6654 ft 147 kts 265°
2026-04-30 07:39 53.94264 13.81370 6819 ft 150 kts 266°
2026-04-30 07:39 53.94075 13.79628 6976 ft 150 kts 266°
2026-04-30 07:39 53.93884 13.77891 7146 ft 149 kts 266°
2026-04-30 07:39 53.93695 13.76169 7310 ft 148 kts 265°
2026-04-30 07:40 53.93507 13.74453 7479 ft 148 kts 266°
2026-04-30 07:40 53.93318 13.72733 7645 ft 148 kts 266°
2026-04-30 07:40 53.93130 13.71015 7819 ft 148 kts 266°
2026-04-30 07:40 53.92939 13.69287 7988 ft 150 kts 266°
2026-04-30 07:41 53.92749 13.67544 8165 ft 151 kts 266°
2026-04-30 07:41 53.92556 13.65796 8342 ft 151 kts 266°
2026-04-30 07:41 53.92517 13.64066 8516 ft 142 kts 294°
2026-04-30 07:41 53.92832 13.62502 8704 ft 141 kts 297°
2026-04-30 07:42 53.93118 13.60931 8874 ft 141 kts 297°
2026-04-30 07:42 53.93413 13.59351 9052 ft 140 kts 298°
2026-04-30 07:42 53.93714 13.57770 9239 ft 141 kts 298°
2026-04-30 07:42 53.94014 13.56188 9419 ft 141 kts 298°
2026-04-30 07:43 53.94313 13.54600 9603 ft 141 kts 299°
2026-04-30 07:43 53.94611 13.53024 9786 ft 140 kts 300°
2026-04-30 07:43 53.94911 13.51440 9972 ft 141 kts 299°
2026-04-30 07:43 53.95210 13.49848 10153 ft 141 kts 300°
2026-04-30 07:44 53.95509 13.48257 10344 ft 141 kts 300°
2026-04-30 07:44 53.95808 13.46670 10515 ft 141 kts 300°
2026-04-30 07:44 53.96106 13.45086 10681 ft 141 kts 300°
2026-04-30 07:44 53.96403 13.43502 10843 ft 141 kts 300°
2026-04-30 07:45 53.96700 13.41912 10958 ft 145 kts 301°
2026-04-30 07:45 53.97027 13.40230 10970 ft 155 kts 300°
2026-04-30 07:45 53.97369 13.38438 10968 ft 164 kts 299°
2026-04-30 07:45 53.97722 13.36561 10968 ft 170 kts 298°
2026-04-30 07:46 53.98081 13.34632 10968 ft 173 kts 298°
2026-04-30 07:46 53.98448 13.32668 10963 ft 175 kts 298°
2026-04-30 07:46 53.98820 13.30688 10956 ft 177 kts 298°
2026-04-30 07:46 53.99191 13.28698 10963 ft 177 kts 298°
2026-04-30 07:47 53.99556 13.26693 10956 ft 178 kts 297°
2026-04-30 07:47 53.99916 13.24682 10948 ft 178 kts 297°
2026-04-30 07:47 54.00290 13.22672 10950 ft 178 kts 297°
2026-04-30 07:47 54.00667 13.20661 10951 ft 179 kts 297°
2026-04-30 07:48 54.01041 13.18646 10950 ft 179 kts 297°
2026-04-30 07:48 54.01415 13.16625 10948 ft 180 kts 297°
2026-04-30 07:48 54.01790 13.14595 10950 ft 180 kts 297°
2026-04-30 07:48 54.02167 13.12565 10951 ft 180 kts 297°
2026-04-30 07:49 54.02543 13.10526 10952 ft 181 kts 297°
2026-04-30 07:49 54.02920 13.08484 10953 ft 181 kts 297°
2026-04-30 07:49 54.03298 13.06434 10955 ft 182 kts 297°
2026-04-30 07:49 54.03677 13.04377 10956 ft 182 kts 297°
2026-04-30 07:50 54.04048 13.02353 10956 ft 182 kts 297°
2026-04-30 07:50 54.04424 13.00304 10956 ft 182 kts 297°
2026-04-30 07:50 54.04807 12.98222 10955 ft 182 kts 297°
2026-04-30 07:50 54.05183 12.96166 10952 ft 182 kts 297°
2026-04-30 07:51 54.05560 12.94110 10948 ft 182 kts 296°
2026-04-30 07:51 54.05934 12.92062 10948 ft 181 kts 296°
2026-04-30 07:51 54.06305 12.90017 10947 ft 180 kts 296°
2026-04-30 07:51 54.06674 12.88008 10949 ft 180 kts 296°
2026-04-30 07:52 54.07046 12.85967 10948 ft 181 kts 296°
2026-04-30 07:52 54.07418 12.83924 10949 ft 181 kts 296°
2026-04-30 07:52 54.07789 12.81881 10950 ft 180 kts 296°
2026-04-30 07:52 54.08159 12.79845 10952 ft 180 kts 296°
2026-04-30 07:53 54.08529 12.77807 10953 ft 180 kts 296°
2026-04-30 07:53 54.08898 12.75770 10943 ft 180 kts 296°
2026-04-30 07:53 54.09268 12.73732 10947 ft 180 kts 295°
2026-04-30 07:53 54.09636 12.71698 10947 ft 180 kts 295°
2026-04-30 07:54 54.10003 12.69661 10948 ft 180 kts 295°
2026-04-30 07:54 54.10370 12.67624 10949 ft 180 kts 295°
2026-04-30 07:54 54.10739 12.65584 10950 ft 180 kts 295°
2026-04-30 07:54 54.11106 12.63536 10949 ft 181 kts 295°
2026-04-30 07:55 54.11475 12.61486 10948 ft 181 kts 295°
2026-04-30 07:55 54.11843 12.59431 10947 ft 181 kts 295°
2026-04-30 07:55 54.12211 12.57382 10947 ft 181 kts 295°
2026-04-30 07:55 54.12578 12.55333 10948 ft 181 kts 295°
2026-04-30 07:56 54.12945 12.53285 10948 ft 181 kts 295°
2026-04-30 07:56 54.13312 12.51233 10948 ft 181 kts 295°
2026-04-30 07:56 54.13678 12.49186 10948 ft 181 kts 295°
2026-04-30 07:56 54.14042 12.47137 10949 ft 180 kts 295°
2026-04-30 07:57 54.14408 12.45089 10943 ft 180 kts 295°
2026-04-30 07:57 54.14772 12.43041 10943 ft 180 kts 295°
2026-04-30 07:57 54.15135 12.40996 10943 ft 180 kts 295°
2026-04-30 07:57 54.15501 12.38947 10943 ft 181 kts 295°
2026-04-30 07:58 54.15864 12.36895 10944 ft 180 kts 295°
2026-04-30 07:58 54.16227 12.34851 10947 ft 180 kts 295°
2026-04-30 07:58 54.16590 12.32802 10947 ft 180 kts 295°
2026-04-30 07:58 54.16951 12.30754 10946 ft 181 kts 295°
2026-04-30 07:59 54.17309 12.28728 10945 ft 181 kts 295°
2026-04-30 07:59 54.17671 12.26678 10944 ft 181 kts 295°
2026-04-30 07:59 54.18030 12.24629 10945 ft 180 kts 295°
2026-04-30 08:00 54.18753 12.20530 10948 ft 180 kts 295°
2026-04-30 08:00 54.19112 12.18480 10948 ft 180 kts 295°
2026-04-30 08:00 54.19472 12.16427 10948 ft 180 kts 295°
2026-04-30 08:00 54.19832 12.14373 10949 ft 181 kts 295°
2026-04-30 08:01 54.20192 12.12318 10949 ft 181 kts 295°
2026-04-30 08:01 54.20550 12.10263 10949 ft 180 kts 295°
2026-04-30 08:01 54.20910 12.08207 10949 ft 180 kts 295°
2026-04-30 08:01 54.21163 12.06087 10947 ft 184 kts 286°
2026-04-30 08:02 54.21553 12.01766 10946 ft 184 kts 287°
2026-04-30 08:02 54.21756 11.99618 10948 ft 183 kts 287°
2026-04-30 08:03 54.22157 11.95309 10960 ft 184 kts 287°
2026-04-30 08:03 54.22556 11.90996 10959 ft 184 kts 287°
2026-04-30 08:03 54.22753 11.88866 10957 ft 184 kts 287°
2026-04-30 08:04 54.22952 11.86706 10954 ft 184 kts 287°
2026-04-30 08:04 54.23150 11.84547 10954 ft 184 kts 287°
2026-04-30 08:04 54.23348 11.82385 10954 ft 184 kts 287°
2026-04-30 08:04 54.23545 11.80230 10953 ft 184 kts 287°
2026-04-30 08:05 54.23743 11.78071 10956 ft 184 kts 287°
2026-04-30 08:05 54.23939 11.75911 10956 ft 184 kts 287°
2026-04-30 08:05 54.24136 11.73757 10959 ft 183 kts 286°
2026-04-30 08:05 54.24331 11.71600 10958 ft 184 kts 286°
2026-04-30 08:06 54.24527 11.69436 10958 ft 184 kts 286°
2026-04-30 08:06 54.24723 11.67268 10958 ft 185 kts 286°
2026-04-30 08:06 54.24854 11.65831 10958 ft 185 kts 286°
2026-04-30 08:06 54.25048 11.63662 10959 ft 185 kts 286°
2026-04-30 08:07 54.25244 11.61490 10960 ft 185 kts 286°
2026-04-30 08:07 54.25439 11.59317 10961 ft 185 kts 285°
2026-04-30 08:07 54.25634 11.57146 10963 ft 185 kts 285°
2026-04-30 08:07 54.25829 11.54968 10964 ft 185 kts 285°
2026-04-30 08:08 54.26022 11.52799 10965 ft 185 kts 285°
2026-04-30 08:08 54.26216 11.50622 10965 ft 185 kts 285°
2026-04-30 08:08 54.26409 11.48445 10966 ft 185 kts 285°
2026-04-30 08:08 54.26602 11.46267 10966 ft 185 kts 285°
2026-04-30 08:09 54.26793 11.44093 10963 ft 185 kts 285°
2026-04-30 08:09 54.26986 11.41910 10959 ft 185 kts 285°
2026-04-30 08:09 54.27178 11.39734 10959 ft 185 kts 285°
2026-04-30 08:09 54.27369 11.37555 10958 ft 185 kts 285°
2026-04-30 08:10 54.27560 11.35376 10961 ft 185 kts 285°
2026-04-30 08:10 54.27751 11.33198 10963 ft 185 kts 285°
2026-04-30 08:10 54.27942 11.31013 10963 ft 185 kts 285°
2026-04-30 08:10 54.28132 11.28831 10963 ft 186 kts 285°
2026-04-30 08:11 54.28321 11.26651 10960 ft 185 kts 285°
2026-04-30 08:11 54.28511 11.24466 10961 ft 185 kts 285°
2026-04-30 08:11 54.28699 11.22286 10953 ft 185 kts 285°
2026-04-30 08:11 54.28886 11.20111 10961 ft 185 kts 284°
2026-04-30 08:12 54.29075 11.17934 10963 ft 185 kts 284°
2026-04-30 08:12 54.29262 11.15748 10963 ft 186 kts 284°
2026-04-30 08:12 54.29450 11.13563 10964 ft 186 kts 284°
2026-04-30 08:12 54.29635 11.11399 10972 ft 186 kts 284°
2026-04-30 08:13 54.29822 11.09209 10970 ft 186 kts 284°
2026-04-30 08:13 54.30008 11.07020 10971 ft 186 kts 284°
2026-04-30 08:13 54.30195 11.04827 10971 ft 186 kts 284°
2026-04-30 08:13 54.30383 11.02631 10974 ft 187 kts 284°
2026-04-30 08:14 54.30579 11.00439 10974 ft 186 kts 288°
2026-04-30 08:14 54.30947 10.98345 10976 ft 183 kts 295°
2026-04-30 08:14 54.31333 10.96267 10978 ft 183 kts 294°
2026-04-30 08:14 54.31711 10.94172 10976 ft 184 kts 294°
2026-04-30 08:15 54.32086 10.92081 10975 ft 184 kts 294°
2026-04-30 08:15 54.32462 10.89986 10976 ft 184 kts 294°
2026-04-30 08:15 54.32839 10.87900 10978 ft 183 kts 294°
2026-04-30 08:15 54.33214 10.85813 10979 ft 183 kts 294°
2026-04-30 08:16 54.33588 10.83727 10980 ft 183 kts 294°
2026-04-30 08:16 54.33962 10.81644 10978 ft 183 kts 294°
2026-04-30 08:16 54.34336 10.79548 10976 ft 183 kts 294°
2026-04-30 08:16 54.34705 10.77494 10978 ft 183 kts 294°
2026-04-30 08:17 54.35077 10.75411 10979 ft 183 kts 294°
2026-04-30 08:17 54.35453 10.73327 10979 ft 183 kts 294°
2026-04-30 08:17 54.35837 10.71250 10978 ft 183 kts 295°
2026-04-30 08:17 54.36227 10.69172 10972 ft 183 kts 294°
2026-04-30 08:18 54.36582 10.67071 10976 ft 184 kts 291°
2026-04-30 08:18 54.36936 10.64968 10975 ft 184 kts 292°
2026-04-30 08:18 54.37306 10.62871 10976 ft 184 kts 293°
2026-04-30 08:18 54.37673 10.60797 10972 ft 179 kts 293°
2026-04-30 08:19 54.38027 10.58781 10971 ft 175 kts 293°
2026-04-30 08:19 54.38374 10.56813 10973 ft 170 kts 293°
2026-04-30 08:19 54.38712 10.54894 10973 ft 166 kts 294°
2026-04-30 08:19 54.39043 10.53012 10971 ft 164 kts 294°
2026-04-30 08:20 54.39372 10.51151 10974 ft 162 kts 294°
2026-04-30 08:20 54.39697 10.49302 10972 ft 161 kts 294°
2026-04-30 08:20 54.40021 10.47467 10970 ft 161 kts 294°
2026-04-30 08:20 54.40344 10.45627 10970 ft 160 kts 294°
2026-04-30 08:21 54.40661 10.43820 10971 ft 160 kts 294°
2026-04-30 08:21 54.40983 10.41989 10972 ft 160 kts 294°
2026-04-30 08:21 54.41305 10.40151 10971 ft 161 kts 294°
2026-04-30 08:21 54.41626 10.38317 10971 ft 161 kts 294°
2026-04-30 08:22 54.41947 10.36480 10970 ft 161 kts 294°
2026-04-30 08:22 54.42267 10.34642 10971 ft 161 kts 294°
2026-04-30 08:22 54.42590 10.32795 10971 ft 162 kts 294°
2026-04-30 08:22 54.42912 10.30946 10984 ft 161 kts 294°
2026-04-30 08:23 54.43234 10.29102 10982 ft 161 kts 293°
2026-04-30 08:23 54.43555 10.27251 10984 ft 161 kts 294°
2026-04-30 08:23 54.43876 10.25407 10986 ft 161 kts 293°
2026-04-30 08:23 54.44196 10.23561 10986 ft 161 kts 293°
2026-04-30 08:24 54.44517 10.21712 10989 ft 161 kts 293°
2026-04-30 08:24 54.44837 10.19864 10988 ft 162 kts 294°
2026-04-30 08:24 54.45160 10.18010 10988 ft 162 kts 293°
2026-04-30 08:24 54.45480 10.16156 10988 ft 162 kts 293°
2026-04-30 08:25 54.45800 10.14298 10990 ft 162 kts 294°
2026-04-30 08:25 54.46120 10.12439 10990 ft 163 kts 293°
2026-04-30 08:25 54.46441 10.10576 10988 ft 162 kts 293°
2026-04-30 08:25 54.46760 10.08715 10988 ft 162 kts 293°
2026-04-30 08:26 54.47082 10.06849 10987 ft 163 kts 293°
2026-04-30 08:26 54.47402 10.04981 10989 ft 163 kts 293°
2026-04-30 08:26 54.47726 10.03098 10988 ft 164 kts 293°
2026-04-30 08:26 54.48049 10.01217 10988 ft 164 kts 293°
2026-04-30 08:27 54.48370 9.99340 10990 ft 164 kts 293°
2026-04-30 08:27 54.48691 9.97463 10991 ft 163 kts 293°
2026-04-30 08:27 54.49006 9.95616 10989 ft 163 kts 293°
2026-04-30 08:27 54.49326 9.93744 10988 ft 163 kts 293°
2026-04-30 08:28 54.49645 9.91871 10990 ft 164 kts 293°
2026-04-30 08:28 54.49965 9.89997 10991 ft 164 kts 293°
2026-04-30 08:28 54.50286 9.88106 10992 ft 165 kts 293°
2026-04-30 08:28 54.50601 9.86209 10994 ft 166 kts 289°
2026-04-30 08:29 54.50794 9.84241 10991 ft 167 kts 285°
2026-04-30 08:29 54.50996 9.82231 11001 ft 173 kts 286°
2026-04-30 08:29 54.51209 9.80163 11001 ft 177 kts 285°
2026-04-30 08:29 54.51424 9.78054 10999 ft 181 kts 285°
2026-04-30 08:30 54.51643 9.75906 10998 ft 184 kts 285°
2026-04-30 08:30 54.51860 9.73732 11001 ft 185 kts 285°
2026-04-30 08:30 54.52079 9.71540 10999 ft 186 kts 285°
2026-04-30 08:30 54.52300 9.69345 10990 ft 187 kts 285°
2026-04-30 08:31 54.52518 9.67139 10989 ft 187 kts 284°
2026-04-30 08:31 54.52737 9.64934 10990 ft 187 kts 284°
2026-04-30 08:31 54.52958 9.62715 10990 ft 188 kts 284°
2026-04-30 08:31 54.53177 9.60505 10991 ft 187 kts 284°
2026-04-30 08:32 54.53395 9.58293 10991 ft 188 kts 284°
2026-04-30 08:32 54.53615 9.56075 10992 ft 188 kts 284°
2026-04-30 08:32 54.53834 9.53851 10991 ft 188 kts 284°
2026-04-30 08:32 54.54052 9.51632 10989 ft 188 kts 284°
2026-04-30 08:33 54.54269 9.49423 10991 ft 187 kts 284°
2026-04-30 08:33 54.54483 9.47238 10990 ft 187 kts 284°
2026-04-30 08:33 54.54699 9.45027 10989 ft 187 kts 284°
2026-04-30 08:33 54.54914 9.42822 10988 ft 187 kts 284°
2026-04-30 08:34 54.55129 9.40617 10990 ft 187 kts 284°
2026-04-30 08:34 54.55344 9.38401 10988 ft 188 kts 284°
2026-04-30 08:34 54.55559 9.36189 10985 ft 187 kts 284°
2026-04-30 08:34 54.55775 9.33978 10985 ft 187 kts 284°
2026-04-30 08:35 54.55987 9.31772 10987 ft 187 kts 284°
2026-04-30 08:35 54.56200 9.29560 10989 ft 187 kts 284°
2026-04-30 08:35 54.56413 9.27350 10988 ft 187 kts 284°
2026-04-30 08:35 54.56625 9.25141 10988 ft 187 kts 284°
2026-04-30 08:36 54.56837 9.22929 10987 ft 187 kts 284°
2026-04-30 08:36 54.57049 9.20719 10987 ft 187 kts 284°
2026-04-30 08:36 54.57260 9.18509 10987 ft 187 kts 284°
2026-04-30 08:36 54.57472 9.16285 10892 ft 192 kts 284°
2026-04-30 08:37 54.57700 9.13949 10664 ft 202 kts 283°
2026-04-30 08:37 54.57929 9.11534 10429 ft 205 kts 282°
2026-04-30 08:37 54.58155 9.09117 10172 ft 204 kts 283°
2026-04-30 08:37 54.58381 9.06716 9910 ft 203 kts 282°
2026-04-30 08:38 54.58606 9.04319 9646 ft 202 kts 282°
2026-04-30 08:38 54.58831 9.01936 9387 ft 201 kts 282°
2026-04-30 08:38 54.59054 8.99556 9127 ft 200 kts 282°
2026-04-30 08:38 54.59275 8.97202 8875 ft 199 kts 282°
2026-04-30 08:39 54.59495 8.94851 8624 ft 199 kts 282°
2026-04-30 08:39 54.59712 8.92499 8362 ft 198 kts 282°
2026-04-30 08:39 54.59928 8.90192 8125 ft 197 kts 282°
2026-04-30 08:39 54.60147 8.87830 7872 ft 196 kts 282°
2026-04-30 08:40 54.60360 8.85543 7626 ft 195 kts 282°
2026-04-30 08:40 54.60571 8.83242 7384 ft 194 kts 281°
2026-04-30 08:40 54.60783 8.80949 7141 ft 193 kts 281°
2026-04-30 08:40 54.60994 8.78672 6898 ft 192 kts 281°
2026-04-30 08:41 54.61202 8.76400 6638 ft 191 kts 281°
2026-04-30 08:41 54.61413 8.74146 6377 ft 190 kts 283°
2026-04-30 08:41 54.61926 8.72091 6125 ft 186 kts 309°
2026-04-30 08:41 54.62841 8.70573 5871 ft 181 kts 331°
2026-04-30 08:42 54.63993 8.69771 5624 ft 177 kts 352°
2026-04-30 08:42 54.65209 8.69464 5375 ft 177 kts 355°
2026-04-30 08:42 54.66422 8.69130 5119 ft 177 kts 354°
2026-04-30 08:42 54.67637 8.68797 4862 ft 177 kts 354°
2026-04-30 08:43 54.68855 8.68467 4600 ft 177 kts 354°
2026-04-30 08:43 54.70072 8.68136 4344 ft 177 kts 353°
2026-04-30 08:43 54.71282 8.67807 4086 ft 176 kts 353°
2026-04-30 08:43 54.72487 8.67479 3838 ft 175 kts 352°
2026-04-30 08:44 54.73692 8.67149 3585 ft 176 kts 352°
2026-04-30 08:44 54.74905 8.66821 3330 ft 177 kts 352°
2026-04-30 08:44 54.76124 8.66489 3076 ft 178 kts 352°
2026-04-30 08:44 54.77347 8.66156 2822 ft 178 kts 351°
2026-04-30 08:45 54.78574 8.65820 2562 ft 178 kts 351°
2026-04-30 08:45 54.79774 8.65491 2491 ft 169 kts 351°
2026-04-30 08:45 54.80910 8.65173 2480 ft 162 kts 352°
2026-04-30 08:45 54.81993 8.64879 2485 ft 153 kts 351°
2026-04-30 08:46 54.83038 8.64583 2427 ft 152 kts 352°
2026-04-30 08:46 54.84100 8.64420 2391 ft 153 kts 356°
2026-04-30 08:46 54.85165 8.64275 2373 ft 154 kts 356°
2026-04-30 08:46 54.86231 8.64101 2376 ft 155 kts 354°
2026-04-30 08:47 54.87283 8.63654 2376 ft 158 kts 333°
2026-04-30 08:47 54.88119 8.62367 2155 ft 165 kts 302°
2026-04-30 08:47 54.88497 8.60560 2156 ft 157 kts 277°
2026-04-30 08:47 54.88561 8.58674 2075 ft 157 kts 269°
2026-04-30 08:48 54.88605 8.56794 2013 ft 155 kts 271°
2026-04-30 08:48 54.88648 8.54920 1927 ft 157 kts 270°
2026-04-30 08:48 54.88647 8.53018 1868 ft 157 kts 266°
2026-04-30 08:48 54.88638 8.51131 1847 ft 156 kts 271°
2026-04-30 08:49 54.88759 8.49294 1832 ft 155 kts 278°
2026-04-30 08:49 54.88951 8.47441 1809 ft 155 kts 279°
2026-04-30 08:49 54.89201 8.45614 1791 ft 156 kts 284°
2026-04-30 08:49 54.89567 8.43832 1766 ft 157 kts 292°
2026-04-30 08:50 54.90077 8.42142 1725 ft 159 kts 300°
2026-04-30 08:50 54.90719 8.40549 1636 ft 163 kts 307°
2026-04-30 08:50 54.91471 8.39058 1534 ft 165 kts 314°
2026-04-30 08:50 54.92313 8.37722 1419 ft 161 kts 321°
2026-04-30 08:51 54.93204 8.36673 1212 ft 150 kts 327°
2026-04-30 08:51 54.94044 8.35749 987 ft 136 kts 325°
2026-04-30 08:51 54.94645 8.34672 863 ft 114 kts 285°
2026-04-30 08:51 54.94452 8.33498 689 ft 102 kts 219°
2026-04-30 08:52 54.93929 8.32723 599 ft 96 kts 217°
2026-04-30 08:52 54.93421 8.32234 590 ft 74 kts 188°
2026-04-30 08:52 54.92907 8.32231 429 ft 73 kts 166°
2026-04-30 08:52 54.92464 8.32631 223 ft 70 kts 148°
2026-04-30 08:53 54.92069 8.33123 124 ft 70 kts 144°
2026-04-30 08:53 54.91668 8.33622 46 ft 66 kts 147°
2026-04-30 08:53 54.91363 8.33995 39 ft 33 kts 144°
2026-04-30 08:53 54.91291 8.34000 40 ft 11 kts 248°
2026-04-30 08:54 54.91248 8.33829 35 ft 19 kts 244°
2026-04-30 08:54 54.91175 8.33608 35 ft 22 kts 239°
2026-04-30 08:54 54.91095 8.33371 35 ft 19 kts 240°
2026-04-30 08:54 54.91070 8.33223 35 ft 12 kts 302°
2026-04-30 08:55 54.91163 8.33182 36 ft 16 kts
2026-04-30 08:55 54.91271 8.33182 33 ft 12 kts 360°
2026-04-30 08:55 54.91318 8.33135 31 ft 5 kts 304°
2026-04-30 08:55 54.91354 8.33109 29 ft 7 kts 79°
2026-04-30 08:56 54.91352 8.33128 29 ft 0 kts 95°